Back to catalog

KUIPER-00282

AliveCommunicationsLEO
NORAD 69267·PAYLOAD·🇺🇸 United States

Launched May 29, 2026 from Vandenberg Space Force Base

Loading…

Next Passes (next 24 hours)

TLE

FreshSource: CelesTrak SupGP

Epoch: Sep 14, 2026, 20:20 UTC

1 69267C 26118A   26257.84732639  .00005286  00000+0  69187-3 0  2573
2 69267  51.8978   4.1651 0000396 154.7146 180.1741 14.79932552    13

Track KUIPER-00282 in real time with AllMySat

Download on the App Store